Kineis-3A

operational
NORAD ID: 61223 Int'l Des: 2024-172 Owner: KINEIS Country: F
LEOCIRCULARRETROGRADESSO

About Kineis-3A

Description loading...

Live Position

Loading 3D Globe...

Upcoming Passes

Altitude History

Altitude vs Time

uPlot chart will show altitude changes over time

Two-Line Element Set

1 61223U 24172D 26062.14791909 .00002686 00000-0 43280-3 0 9998
2 61223 98.0295 153.3244 0003160 83.9061 276.2506 14.72296128 77170
Epoch: Mar 3, 2026 • Age: 8 hours

Current Status

Altitude 669.8 km
Velocity 7.52 km/s
Sub-Earth Point -38.93°S, 125.08°W
Launch Date Sep 20, 2024
Age 1.4 years
Type other

Technical Details

Classification Payload
Mass 28.00 kg
Dry Mass 28.00 kg
Total Mass 28.00 kg
Length 0.40 m
Diameter 0.20 m
Span 1.60 m
Shape Box+ 2 pan + ant
Manufacturer KINEIS
Bus Type Cubesat 16U
Phase Status In Orbit
Owner/State KINEIS/F

Large Constellations

Loading constellations...